Find Gao Fen 13

NORAD ID: 46610 Int'l Des: 2020-071 Owner: YWZB Country: CN operational
HEOCIRCULARGSO

Live-Position

3D-Globus wird geladen...

Über Gao Fen 13

Beschreibung wird geladen...

Nächste Überflüge

Passes for default location (London). Set your location on the main map for personalized predictions.

Höhenverlauf

Loading altitude history...

Zweizeiliger Elementsatz

1 46610U 20071A 26106.96314789 -.00000356 00000-0 00000-0 0 9994
2 46610 0.3619 84.9200 0042528 122.1399 102.9820 1.00271078 20302
Epoch: 16. Apr. 2026 • Age: 13 hours

Aktueller Status

Höhe 35719.3 km
Geschwindigkeit 3.08 km/s
Subsatellitenpunkt 0.27°N, 117.74°E
Startdatum 11. Okt. 2020
Alter 5.5 years
Typ other

Technische Details

Klassifizierung Payload
Masse 4600.00 kg
Trockenmasse 2500.00 kg
Gesamtmasse 4600.00 kg
Länge 5.00 m
Durchmesser 2.50 m
Spannweite 30.00 m
Form Box + 2 Pan
Hersteller CAST
Bus-Typ DFH-4
Phasenstatus In Orbit
Besitzer/Staat YWZB/CN

Most Searched